Location: Daerah Kuala Lumpur
(3.1167°N, 101.6833°E)
Time: 13:24:28
(UTC+00:00)

ARIANE 6 FM1 Upper Stage - Pass Details

Date: 25 February 2026
Orbit: 523 x 607 km, 62.0° (Epoch: 14 March)

Event Time Altitude Azimuth Distance (km) Brightness Sun altitude
Rises 13:03:07 0° 298° (WNW) 2,686 7.0 -24.4°
Reaches altitude 10° 13:06:54 10° 261° (W) 1,820 6.3 -25.3°
Maximum altitude 13:08:03 11° 245° (WSW) 1,764 6.1 -25.6°
Drops below altitude 10° 13:09:13 10° 228° (SW) 1,836 6.0 -25.9°
Sets 13:13:07 0° 192° (SSW) 2,760 6.4 -26.9°
